Location: Unspecified
(49.9820°N, 20.4363°E)
Time: 13:46:16
(UTC+02:00)

ISS - Pass Details

Date: 20 May 2018
Orbit: 402 x 407 km, 51.6° (Epoch: 20 May)

Event Time Altitude Azimuth Distance (km) Brightness Sun altitude
Exits shadow 00:06:25 62° 73° (ENE) 457 -3.6 -19.8°
Drops below altitude 10° 00:09:12 10° 74° (ENE) 1,459 -0.9 -19.9°
Sets 00:11:17 0° 75° (ENE) 2,320 0.1 -19.9°
